FENGYUN 1C DEB

Satellite information

Favourite Embed

Satellite Type and Status

DEBRISIN ORBIT

Key statistics

Satellite FENGYUN 1C DEB at a glance.

Uptime

9714

Days in orbit

Revolutions

≈ 14.4

Per day

Orbit

SSO

Sun Synchronous Orbit

Inclination

98.9

Latest

Satellite identification and parameters

Extended collection of information and parameters for FENGYUN 1C DEB.

Object identification

Identified? True

Debris? True

Object name: FENGYUN 1C DEB

International designator: 1999-025QV

Object number (NORAD): 30092

Object ID (CCSDS): 30092

Country: PEOPLES REPUBLIC OF CHINA (PRC)

Current information (Y/N): Y

RCS size: SMALL

Orbital parameters

Period: 100.06 minutes

Inclination: 98.9228 deg

SMA: 7139.494 km

Apoapsis: 820.335 km

Periapsis: 702.383 km

RAAN: 165.2956 deg

Eccentricy: 0.00826048

Argument of periapsis: 252.4296 deg

Mean anomaly: 232.7845 deg

Mean motion: 14.3913527 rev/day

Mean motion (dot): 0.0000288 rev/day2

B* drag term: 0.000909501 1/REarth

Two-line elements (TLE)

Creation date: Dec. 12, 2025, 10:14 a.m.

Reference frame: TEME

Reference center: EARTH

Epoch: Dec. 12, 2025, 1:36 a.m. UTC

TLE line 0: 0 FENGYUN 1C DEB

TLE line 1: 1 30092U 99025QV 25346.06703411 .00002880 00000-0 90950-3 0 9995

TLE line 2: 2 30092 98.9228 165.2956 0082605 252.4296 232.7845 14.39135270987391

Live tracking on map

Real-time ground track for satellite FENGYUN 1C DEB.

In-orbit conjunctions

A list of the most updated potential collisions computed for object FENGYUN 1C DEB.

Target Orbit TCA Probability of collision Miss distance Type
CZ-6A DEB SSO 2025-10-25 01:20:14 0.0002956107 43.0 (m) DEBRIS
DELTA 1 DEB SSO 2025-04-12 07:04:01 0.0001009751 253.0 (m) DEBRIS
CZ-6A DEB LEO 2024-12-31 19:43:31 0.0001511778 170.0 (m) DEBRIS

Associated space launch

Chinese polar orbiting meteorological satellite

FENGYUN 1C DEB was lifted into orbit during the mission ‘Long March 4B | Feng Yun 1C’, on board a Long March 4B space rocket.

The launch took place on May 10, 1999, 1:33 a.m. from Launch Complex 7.

For more information about the launch, click the button.

Launch to space Long March 4B | Feng Yun 1C
Long March 4B | Feng Yun 1C

Agency: N/A

Status: Launch Successful

Launch date: May 10, 1999, 1:33 a.m. UTC

Rocket: Long March 4B

Launch pad: Launch Complex 7

Location: Taiyuan Satellite Launch Center, People's Republic of China

...

Latest news about this satellite

There are no fresh news available about this satellite. Check back as we update our databases every day.


Newsletter sign-up

Weekly statistics, charts and insights to help you stay on top of the space industry.